GW4429 Weather Reports


time (UTC)temp
C
wind
direction
speed
KPH
gust
KPH
rain 1hr
cm
rain 24hr
cm
rain mn
cm
humidity
%
barometer
mb
20260505095036 25 77 11.3 19.3 0.00 0.00 0.00 83 1016.1
20260505094546 25 62 9.7 20.9 0.00 0.00 0.00 84 1016.1
20260505094036 25 77 9.7 20.9 0.00 0.00 0.00 84 1015.9
20260505093536 25 51 8.0 20.9 0.00 0.00 0.00 84 1015.9
20260505093045 25 52 8.0 16.1 0.00 0.00 0.00 85 1016.0
20260505092539 25 63 8.0 20.9 0.00 0.00 0.00 85 1015.9
20260505092036 24 67 8.0 20.9 0.00 0.00 0.00 85 1015.9
20260505091557 24 52 6.4 14.5 0.00 0.00 0.00 84 1015.9
20260505091035 25 59 6.4 12.9 0.00 0.00 0.00 84 1015.9
20260505090533 25 67 6.4 16.1 0.00 0.00 0.00 84 1015.8
20260505090049 25 42 9.7 16.1 0.00 0.00 0.00 84 1015.8
20260505085536 25 61 8.0 17.7 0.00 0.00 0.00 84 1015.8
20260505085036 24 60 8.0 17.7 0.00 0.00 0.00 85 1015.7
20260505084548 24 61 8.0 16.1 0.00 0.00 0.00 84 1015.8
20260505084036 24 69 6.4 16.1 0.00 0.00 0.00 84 1015.7
20260505083537 24 45 8.0 16.1 0.00 0.00 0.00 84 1015.7
20260505083056 24 50 8.0 17.7 0.00 0.00 0.00 84 1015.7
20260505082534 24 43 8.0 17.7 0.00 0.00 0.00 84 1015.7
20260505082034 25 61 8.0 14.5 0.00 0.00 0.00 83 1015.7
20260505081551 25 37 8.0 14.5 0.00 0.00 0.00 83 1015.7
20260505081034 25 63 8.0 16.1 0.00 0.00 0.00 84 1015.8
20260505080534 25 54 9.7 16.1 0.00 0.00 0.00 83 1015.8
20260505080103 25 51 8.0 16.1 0.00 0.00 0.00 83 1015.9
20260505075534 25 35 9.7 16.1 0.00 0.00 0.00 83 1015.9
20260505075034 25 46 8.0 16.1 0.00 0.00 0.00 83 1015.8
20260505074551 25 41 8.0 16.1 0.00 0.00 0.00 83 1015.9
20260505074034 25 40 8.0 16.1 0.00 0.00 0.00 83 1015.8
20260505073537 25 16 9.7 17.7 0.00 0.00 0.00 83 1015.8
20260505073046 25 84 8.0 17.7 0.00 0.00 0.00 83 1015.8
20260505072534 25 51 8.0 16.1 0.00 0.00 0.00 82 1015.7
20260505072034 25 50 6.4 14.5 0.00 0.00 0.00 82 1015.8
20260505071546 25 66 6.4 14.5 0.00 0.00 0.00 82 1015.8
20260505071034 25 56 6.4 14.5 0.00 0.00 0.00 81 1015.8
20260505070534 25 39 6.4 12.9 0.00 0.00 0.00 81 1015.8
20260505070052 25 77 4.8 14.5 0.00 0.00 0.00 81 1015.8
20260505065535 26 53 4.8 14.5 0.00 0.00 0.00 81 1015.7
20260505065034 26 80 4.8 11.3 0.00 0.00 0.00 80 1015.8
20260505064544 26 52 4.8 12.9 0.00 0.00 0.00 80 1015.8
20260505064034 26 75 4.8 12.9 0.00 0.00 0.00 80 1015.8
20260505063534 26 86 4.8 12.9 0.00 0.00 0.00 80 1015.8
20260505063108 26 78 4.8 12.9 0.00 0.00 0.00 80 1015.9
20260505062539 26 92 4.8 12.9 0.00 0.00 0.00 80 1015.9
20260505062033 26 92 4.8 12.9 0.00 0.00 0.00 80 1016.0
20260505061548 26 84 4.8 12.9 0.00 0.00 0.00 79 1016.0
20260505061037 26 92 4.8 14.5 0.00 0.00 0.00 79 1016.1
20260505060534 26 80 3.2 14.5 0.00 0.00 0.00 79 1016.1
20260505060054 26 64 6.4 14.5 0.00 0.00 0.00 79 1016.1
20260505055534 26 98 4.8 16.1 0.00 0.00 0.00 79 1016.1
20260505055034 26 132 6.4 16.1 0.00 0.00 0.00 78 1016.1
20260505054606 26 76 6.4 14.5 0.00 0.00 0.00 78 1016.1
20260505054037 26 94 4.8 14.5 0.00 0.00 0.00 78 1016.3
20260505053535 26 98 4.8 14.5 0.00 0.00 0.00 78 1016.4
20260505053058 26 91 6.4 14.5 0.00 0.00 0.00 79 1016.5
20260505052536 26 82 8.0 14.5 0.00 0.00 0.00 78 1016.5
20260505052036 26 83 8.0 14.5 0.00 0.00 0.00 79 1016.5
20260505051550 26 69 4.8 14.5 0.00 0.00 0.00 79 1016.6
20260505051036 26 76 4.8 12.9 0.00 0.00 0.00 79 1016.7
20260505050536 26 81 4.8 12.9 0.00 0.00 0.00 78 1016.8
20260505041557 26 78 4.8 14.5 0.00 0.00 0.00 81 1017.3
20260505041036 26 59 6.4 14.5 0.00 0.00 0.00 80 1017.3
20260505040536 26 51 6.4 14.5 0.00 0.00 0.00 81 1017.4
20260505040053 26 54 6.4 12.9 0.00 0.00 0.00 81 1017.4
20260505035535 26 37 6.4 14.5 0.00 0.00 0.00 82 1017.5
20260505035035 26 51 6.4 14.5 0.00 0.00 0.00 82 1017.6
20260505034546 26 44 6.4 11.3 0.00 0.00 0.00 82 1017.7
20260505034040 26 49 4.8 9.7 0.00 0.00 0.00 82 1017.7
20260505033536 26 41 4.8 9.7 0.00 0.00 0.00 82 1017.6
20260505033048 26 73 4.8 11.3 0.00 0.00 0.00 82 1017.6
20260505032537 26 74 3.2 11.3 0.00 0.00 0.00 82 1017.6
20260505032036 26 51 6.4 12.9 0.00 0.00 0.00 82 1017.7
20260505031554 26 50 6.4 12.9 0.00 0.00 0.00 82 1017.7
20260505031036 26 53 6.4 9.7 0.00 0.00 0.00 82 1017.8
20260505030535 26 53 4.8 9.7 0.00 0.00 0.00 82 1017.9
20260505030046 26 52 3.2 12.9 0.00 0.00 0.00 82 1017.8
20260505025536 26 34 4.8 14.5 0.00 0.00 0.00 82 1017.8
20260505025039 26 54 8.0 14.5 0.00 0.00 0.00 82 1017.9
20260505024555 26 40 6.4 12.9 0.00 0.00 0.00 82 1017.7
20260505024036 26 45 6.4 12.9 0.00 0.00 0.00 81 1017.7
20260505023537 26 32 6.4 12.9 0.00 0.00 0.00 81 1017.7
20260505023053 26 38 3.2 9.7 0.00 0.00 0.00 81 1017.7
20260505022537 26 64 6.4 12.9 0.00 0.00 0.00 81 1017.6
20260505022036 26 51 8.0 12.9 0.00 0.00 0.00 81 1017.6
20260505021548 26 51 4.8 12.9 0.00 0.00 0.00 81 1017.5
20260505021035 26 42 6.4 12.9 0.00 0.00 0.00 81 1017.5
20260505020536 26 38 4.8 11.3 0.00 0.00 0.00 81 1017.4
20260505020046 26 60 6.4 12.9 0.00 0.00 0.00 81 1017.4
20260505015538 27 57 6.4 12.9 0.00 0.00 0.00 81 1017.4
20260505015039 27 54 6.4 11.3 0.00 0.00 0.00 80 1017.4
20260505014606 27 53 8.0 11.3 0.00 0.00 0.00 80 1017.3
20260505014036 27 46 6.4 9.7 0.00 0.00 0.00 81 1017.2
20260505013536 27 63 6.4 9.7 0.00 0.00 0.00 80 1017.1
20260505013046 27 57 4.8 9.7 0.00 0.00 0.00 81 1017.1
20260505012536 27 58 4.8 8.0 0.00 0.00 0.00 80 1017.0
20260505012036 27 0 3.2 8.0 0.00 0.00 0.00 80 1017.1
20260505011601 27 49 4.8 9.7 0.00 0.00 0.00 80 1017.1
20260505011037 27 65 3.2 9.7 0.00 0.00 0.00 80 1016.9
20260505010536 27 56 4.8 9.7 0.00 0.00 0.00 79 1016.9
20260505010043 27 94 4.8 9.7 0.00 0.00 0.00 79 1016.8
20260505005537 27 80 4.8 9.7 0.00 0.00 0.00 79 1016.7
20260505005036 27 100 3.2 11.3 0.00 0.00 0.00 79 1016.6
20260505004548 27 82 4.8 11.3 0.00 0.00 0.00 79 1016.5
20260505004036 27 92 4.8 11.3 0.00 0.00 0.00 79 1016.5
20260505003539 27 65 4.8 11.3 0.00 0.00 0.00 78 1016.4
20260505003048 27 77 4.8 11.3 0.00 0.00 0.00 78 1016.5
20260505002535 28 56 4.8 8.0 0.00 0.00 0.00 78 1016.5
20260505002036 28 82 3.2 8.0 0.00 0.00 0.00 78 1016.4
20260505001547 28 76 3.2 6.4 0.00 0.00 0.00 78 1016.4
20260505001037 28 79 3.2 9.7 0.00 0.00 0.00 77 1016.4
20260505000536 28 83 3.2 12.9 0.00 0.00 0.00 77 1016.3
20260505000057 28 76 4.8 12.9 0.00 0.00 0.00 77 1016.3
20260504235536 28 98 4.8 16.1 0.00 0.00 0.00 77 1016.2
20260504235036 28 135 6.4 16.1 0.00 0.00 0.00 76 1016.2
20260504234549 28 116 4.8 14.5 0.00 0.00 0.00 76 1016.2
20260504234039 28 77 6.4 14.5 0.00 0.00 0.00 76 1016.2
20260504233536 28 61 3.2 16.1 0.00 0.00 0.00 75 1016.2
20260504233105 28 101 6.4 16.1 0.00 0.00 0.00 75 1016.2
20260504232536 28 119 8.0 16.1 0.00 0.00 0.00 75 1016.2
20260504232035 28 134 8.0 16.1 0.00 0.00 0.00 75 1016.1
20260504231548 29 88 6.4 12.9 0.00 0.00 0.00 74 1016.1
20260504231035 28 94 3.2 12.9 0.00 0.00 0.00 74 1016.1
20260504230534 29 144 6.4 12.9 0.00 0.00 0.00 73 1016.1
20260504230048 29 103 4.8 14.5 0.00 0.00 0.00 72 1016.1
20260504225535 29 117 6.4 14.5 0.00 0.00 0.00 72 1016.0
20260504225034 29 89 6.4 16.1 0.00 0.00 0.00 73 1015.9
20260504224558 30 142 8.0 16.1 0.00 0.00 0.00 73 1015.8
20260504224036 30 119 8.0 14.5 0.00 0.00 0.00 73 1015.8
20260504223534 30 153 6.4 14.5 0.00 0.00 0.00 73 1015.7
20260504223100 30 94 6.4 16.1 0.00 0.00 0.00 72 1015.7
20260504222533 30 138 9.7 16.1 0.00 0.00 0.00 71 1015.6
20260504222034 30 122 8.0 17.7 0.00 0.00 0.00 71 1015.6
20260504221550 30 152 8.0 17.7 0.00 0.00 0.00 71 1015.5
20260504221037 31 161 9.7 20.9 0.00 0.00 0.00 71 1015.5
20260504220535 31 132 9.7 20.9 0.00 0.00 0.00 70 1015.4
20260504220052 31 105 8.0 19.3 0.00 0.00 0.00 70 1015.4
20260504215535 31 145 9.7 19.3 0.00 0.00 0.00 70 1015.4
20260504215038 31 141 6.4 19.3 0.00 0.00 0.00 69 1015.2
20260504214544 31 142 11.3 19.3 0.00 0.00 0.00 69 1015.2
20260504214034 31 135 6.4 22.5 0.00 0.00 0.00 70 1015.1
20260504213535 31 112 12.9 22.5 0.00 0.00 0.00 69 1015.1
20260504213057 31 142 9.7 19.3 0.00 0.00 0.00 69 1015.2
20260504212535 31 116 9.7 22.5 0.00 0.00 0.00 69 1015.1
20260504212034 32 161 12.9 22.5 0.00 0.00 0.00 68 1015.2
20260504211545 32 113 14.5 19.3 0.00 0.00 0.00 68 1015.0
20260504211035 32 142 6.4 20.9 0.00 0.00 0.00 68 1015.1
20260504210537 32 109 9.7 20.9 0.00 0.00 0.00 68 1015.1
20260504210047 32 140 9.7 20.9 0.00 0.00 0.00 68 1015.1
20260504205535 32 148 11.3 24.1 0.00 0.00 0.00 68 1015.0
20260504205038 32 161 14.5 24.1 0.00 0.00 0.00 68 1015.0
20260504204549 32 160 11.3 24.1 0.00 0.00 0.00 68 1015.0
20260504204035 32 130 14.5 24.1 0.00 0.00 0.00 68 1015.0
20260504203534 32 133 11.3 24.1 0.00 0.00 0.00 69 1015.1
20260504203106 31 123 12.9 24.1 0.00 0.00 0.00 68 1015.1
20260504202535 31 131 12.9 24.1 0.00 0.00 0.00 68 1015.2
20260504202041 31 98 12.9 24.1 0.00 0.00 0.00 68 1015.1
20260504201559 31 120 12.9 27.4 0.00 0.00 0.00 69 1015.2
20260504201034 31 123 12.9 27.4 0.00 0.00 0.00 69 1015.2
20260504200535 31 129 11.3 27.4 0.00 0.00 0.00 69 1015.3
20260504200111 31 119 16.1 24.1 0.00 0.00 0.00 68 1015.3
20260504195534 32 126 16.1 25.7 0.00 0.00 0.00 68 1015.3
20260504195034 32 113 12.9 29.0 0.00 0.00 0.00 68 1015.4
20260504194546 31 119 14.5 29.0 0.00 0.00 0.00 68 1015.3
20260504194035 32 133 17.7 29.0 0.00 0.00 0.00 68 1015.4
20260504193536 32 119 11.3 25.7 0.00 0.00 0.00 69 1015.4
20260504193044 31 218 19.3 29.0 0.00 0.00 0.00 68 1015.4
20260504192534 32 132 16.1 29.0 0.00 0.00 0.00 68 1015.5
20260504192035 32 128 14.5 25.7 0.00 0.00 0.00 68 1015.6
20260504191556 32 137 12.9 27.4 0.00 0.00 0.00 69 1015.7
20260504191035 32 113 14.5 27.4 0.00 0.00 0.00 69 1015.6
20260504190534 32 140 14.5 24.1 0.00 0.00 0.00 68 1015.7
20260504190047 32 107 11.3 27.4 0.00 0.00 0.00 69 1015.7
20260504185533 31 130 12.9 33.8 0.00 0.00 0.00 69 1015.7
20260504185036 31 140 14.5 33.8 0.00 0.00 0.00 69 1015.8
20260504184550 31 101 16.1 32.2 0.00 0.00 0.00 70 1015.8
20260504184035 31 103 12.9 32.2 0.00 0.00 0.00 70 1015.8
20260504183535 31 123 17.7 32.2 0.00 0.00 0.00 69 1015.9
20260504183048 31 138 17.7 30.6 0.00 0.00 0.00 69 1015.8
20260504182536 31 138 16.1 29.0 0.00 0.00 0.00 68 1016.0
20260504182034 31 146 19.3 32.2 0.00 0.00 0.00 69 1015.9
20260504181548 31 153 17.7 32.2 0.00 0.00 0.00 69 1016.0
20260504181035 31 153 17.7 32.2 0.00 0.00 0.00 69 1016.1
20260504180533 31 129 17.7 32.2 0.00 0.00 0.00 69 1016.1
20260504180045 31 121 17.7 30.6 0.00 0.00 0.00 69 1016.2
20260504175534 31 124 17.7 33.8 0.00 0.00 0.00 69 1016.2
20260504175034 31 119 17.7 33.8 0.00 0.00 0.00 67 1016.2
20260504174549 31 126 16.1 32.2 0.00 0.00 0.00 67 1016.3
20260504174034 31 155 14.5 32.2 0.00 0.00 0.00 67 1016.2
20260504173533 31 144 16.1 32.2 0.00 0.00 0.00 68 1016.4
20260504173047 31 140 14.5 30.6 0.00 0.00 0.00 67 1016.4
20260504172535 31 167 16.1 30.6 0.00 0.00 0.00 67 1016.5
20260504172035 31 113 14.5 30.6 0.00 0.00 0.00 65 1016.6
20260504171553 31 110 14.5 30.6 0.00 0.00 0.00 66 1016.7
20260504171034 31 134 16.1 33.8 0.00 0.00 0.00 63 1016.8
20260504170534 31 124 14.5 33.8 0.00 0.00 0.00 63 1016.8
20260504151038 30 95 19.3 33.8 0.00 0.00 0.00 68 1017.2
20260504150534 30 140 16.1 32.2 0.00 0.00 0.00 70 1017.1
20260504141035 30 67 17.7 32.2 0.00 0.00 0.00 70 1017.5
20260504140535 30 115 17.7 30.6 0.00 0.00 0.00 72 1017.6
20260504130536 28 80 14.5 30.6 0.00 0.00 0.00 74 1017.3
20260504110537 25 51 4.8 12.9 0.00 0.00 0.00 82 1016.9
20260504100534 24 25 6.4 14.5 0.00 0.00 0.00 83 1016.6